Las Vegas, NM

5:43 PM MDT on April 29, 2017 (GMT -0600)
Las Vegas Municipal

Weather History for KLVS - June, 2013

Change the Weather History Date:

Monday, June 3, 2013

  Actual Average Record
Temperature  
Mean Temperature 68 °F -  
Max Temperature 86 °F 75 °F 91 °F (2014)
Min Temperature 52 °F 46 °F 38 °F (1951)
Cooling Degree Days 3    
Growing Degree Days 18 (Base 50)    
Moisture  
Dew Point 33 °F    
Average Humidity 37    
Maximum Humidity 83    
Minimum Humidity 10    
Precipitation  
Precipitation 0.00 in - - ()
Sea Level Pressure  
Sea Level Pressure 29.76 in    
Wind  
Wind Speed 18 mph (SW)    
Max Wind Speed 31 mph    
Max Gust Speed 58 mph    
Visibility 10 miles    
Events      
Averages and records for this station are not official NWS values.
T = Trace of Precipitation, MM = Missing Value Source: NWS Daily Summary

Daily Weather History Graph

Daily Weather History Graph

Search for Another Location

Airport or City:

Trip Planner

Search our weather history database for the weather conditions in past years. The results will help you decide how hot, cold, wet, or windy it might be!

Date:

Astronomy

Jun. 03, 2013 Rise Set
Actual Time 5:45 AM MDT 8:12 PM MDT
Civil Twilight 5:15 AM MDT 8:42 PM MDT
Nautical Twilight 4:39 AM MDT 9:18 PM MDT
Astronomical Twilight 3:59 AM MDT 9:59 PM MDT
Moon 2:36 AM MDT (6/3) 3:52 PM MDT (6/3)
Length of Visible Light 15h 26m
Length of Day
14h 26m
Waning Crescent, 21% of the Moon is Illuminated
Jun 3
Waning Crescent
Jun 8
New
Jun 16
First Quarter
Jun 23
Full
Jun 29
Last Quarter

Hourly Weather History & Observations

Time (MDT) Temp. Dew Point Humidity Pressure Visibility Wind Dir Wind Speed Gust Speed Precip Events Conditions
12:53 AM 55.0 °F 44.1 °F 67% 29.87 in 10.0 mi SSW 13.8 mph - N/A   Clear
1:53 AM 53.1 °F 44.1 °F 71% 29.85 in 10.0 mi South 12.7 mph - N/A   Clear
2:53 AM 52.0 °F 45.0 °F 77% 29.83 in 10.0 mi SSW 12.7 mph - N/A   Clear
3:53 AM 53.1 °F 45.0 °F 74% 29.81 in 10.0 mi South 15.0 mph - N/A   Clear
4:53 AM 52.0 °F 46.0 °F 80% 29.83 in 10.0 mi South 18.4 mph - N/A   Clear
5:53 AM 53.1 °F 48.0 °F 83% 29.87 in 10.0 mi SSW 18.4 mph - N/A   Clear
6:53 AM 55.0 °F 48.9 °F 80% 29.89 in 10.0 mi SSW 21.9 mph - N/A   Clear
7:53 AM 59.0 °F 48.0 °F 67% 29.87 in 10.0 mi SSW 25.3 mph - N/A   Clear
8:53 AM 64.9 °F 45.0 °F 48% 29.85 in 10.0 mi South 23.0 mph 27.6 mph N/A   Clear
9:53 AM 71.1 °F 44.1 °F 38% 29.81 in 10.0 mi SSW 21.9 mph 26.5 mph N/A   Clear
10:53 AM 78.1 °F 37.0 °F 23% 29.78 in 10.0 mi SSW 17.3 mph 25.3 mph N/A   Clear
11:53 AM 82.0 °F 27.0 °F 13% 29.76 in 10.0 mi WSW 26.5 mph 36.8 mph N/A   Clear
12:53 PM 82.9 °F 21.9 °F 11% 29.73 in 10.0 mi SW 26.5 mph 35.7 mph N/A   Clear
1:53 PM 84.0 °F 21.0 °F 10% 29.71 in 10.0 mi WSW 28.8 mph 36.8 mph N/A   Clear
2:53 PM 84.0 °F 21.0 °F 10% 29.71 in 10.0 mi West 26.5 mph 36.8 mph N/A   Clear
3:53 PM 84.9 °F 21.9 °F 10% 29.68 in 10.0 mi WSW 24.2 mph 35.7 mph N/A   Clear
4:53 PM 84.0 °F 26.1 °F 12% 29.68 in 10.0 mi SW 21.9 mph 34.5 mph N/A   Clear
5:53 PM 82.9 °F 23.0 °F 11% 29.65 in 10.0 mi West 25.3 mph 33.4 mph N/A   Clear
6:53 PM 79.0 °F 21.9 °F 12% 29.68 in 5.0 mi WNW 31.1 mph 57.5 mph N/A   Haze
7:53 PM 78.1 °F 23.0 °F 13% 29.67 in 10.0 mi SW 23.0 mph 33.4 mph N/A   Clear
8:53 PM 71.1 °F 18.0 °F 13% 29.70 in 10.0 mi WNW 6.9 mph - N/A   Clear
9:53 PM 68.0 °F 19.9 °F 16% 29.71 in 10.0 mi NW 9.2 mph - N/A   Clear
10:53 PM 63.0 °F 19.9 °F 19% 29.72 in 10.0 mi North 6.9 mph - N/A   Clear
11:53 PM 64.9 °F 21.9 °F 19% 29.70 in 10.0 mi NNW 4.6 mph - N/A   Clear